Dewpoint
71 71 72 72 70 70 68 67 68 65 65 68 69 71 72 72 72 72 72 71 70 70 69 69 70 71 72 72 72 72 72 72 73 73 73 73 74 74
71 71 71 72 72 71 70 67 67 66 65 68 68 70 70 70 71 71 70 70 70 70 69 68 69 69 70 71 71 71 71 72 72 72 72 72 72 73
71 71 71 72 70 71 71 70 68 68 66 69 70 70 70 70 70 72 70 70 70 69 68 68 68 68 69 69 69 69 70 70 70 71 72 72 72 72
71 71 71 71 71 72 71 70 70 69 68 67 68 70 69 70 70 69 69 67 69 69 67 67 67 67 66 67 67 67 67 67 68 69 70 70 71 71
71 71 71 70 71 71 71 71 71 70 69 69 69 71 70 70 70 70 70 69 67 68 67 67 66 66 66 65 65 64 63 63 64 65 66 67 69 69
71 71 71 71 71 71 71 71 70 70 70 69 69 68 70 71 70 70 69 70 69 67 67 67 67 67 66 65 64 64 62 61 61 62 62 63 65 66
67 68 70 70 70 70 71 70 71 70 70 69 69 68 68 69 69 70 69 69 69 70 72 73 73 72 71 67 68 67 64 62 61 60 60 60 61 62
65 66 66 67 67 65 66 67 69 69 68 69 69 68 68 69 70 69 69 68 67 72 71 71 73 72 71 74 70 67 64 64 63 60 59 59 59 60
63 63 63 63 65 65 65 64 65 65 66 69 68 68 68 69 70 69 69 69 68 69 70 69 72 69 69 70 66 65 64 63 62 61 60 59 59 58
62 63 64 64 60 61 63 62 63 63 64 65 66 66 67 69 70 70 69 69 69 70 71 65 71 68 70 69 65 64 63 62 62 61 60 59 57 56
59 61 62 60 57 56 57 58 59 60 59 60 61 61 61 61 63 66 65 66 63 63 70 69 66 67 69 67 69 65 62 61 60 59 59 58 56 55
56 57 58 59 56 54 53 53 55 57 58 60 61 61 61 61 62 65 66 63 64 62 66 67 65 69 66 69 67 69 72 63 58 58 58 57 55 63
51 52 53 54 53 52 52 53 54 55 57 59 59 59 60 61 61 65 67 66 65 63 65 70 66 68 67 65 68 70 70 70 71 69 57 54 53 59
52 52 53 52 51 52 54 53 54 56 58 59 59 59 60 61 62 63 66 67 68 67 68 70 67 67 67 65 63 67 69 71 71 70 71 63 53 53
52 53 53 51 52 53 53 53 55 55 57 59 59 60 61 62 63 63 65 66 66 67 66 69 68 68 67 64 63 64 65 67 70 70 71 69 68 65
51 51 51 50 51 50 50 50 50 51 53 53 54 55 56 57 60 62 63 63 62 63 66 67 67 68 64 64 64 63 64 64 68 69 70 70 69 67
50 49 48 47 47 47 47 48 48 50 50 50 51 51 51 51 53 54 58 60 61 61 61 62 66 66 65 64 62 63 63 64 64 65 68 67 69 69
47 47 46 45 45 44 44 44 45 46 47 48 49 50 49 49 49 50 53 54 56 58 59 60 62 62 61 62 64 63 63 64 64 66 67 66 64 68
45 44 44 43 44 43 44 43 43 44 47 45 48 48 49 49 49 50 51 51 51 52 52 55 59 60 58 56 59 59 62 63 65 66 65 64 63 64
44 44 43 44 44 45 44 44 42 42 43 44 45 46 47 47 46 47 48 49 49 50 52 54 55 55 54 54 57 61 55 62 64 65 64 66 65 62
45 45 46 46 47 47 46 45 45 44 43 42 43 44 44 45 45 46 46 46 48 50 50 51 53 55 57 58 58 60 60 55 60 64 65 65 63 63
47 47 47 48 48 49 49 47 46 43 42 42 40 42 43 44 45 45 45 46 47 49 50 52 54 55 55 55 54 56 59 62 61 56 57 59 63 60
48 48 49 49 50 49 49 49 47 44 41 41 41 41 42 42 43 44 45 46 48 49 51 51 52 54 54 54 54 54 55 57 61 61 62 58 57 57
Lifted_Index
-2 -2 -3 -3 -3 -2 -2 -2 -2 -2 -2 -2 -2 -2 -2 -2 -2 -2 -2 -2 -2 -2 -2 -2 -2 -2 -2 -2 -2 -2 -3 -3 -3 -3 -3 -3 -4 -4
-2 -2 -2 -3 -3 -2 -2 -2 -2 -2 -2 -2 -2 -2 -2 -2 -2 -2 -2 -2 -2 -1 -1 -1 -2 -2 -2 -2 -2 -2 -2 -2 -2 -2 -3 -3 -3 -3
-3 -2 -2 -2 -3 -2 -2 -2 -2 -2 -2 -2 -2 -2 -2 -2 -2 -2 -2 -2 -2 -1 -1 -1 -1 -1 -2 -2 -1 -1 -1 -1 -1 -2 -2 -2 -2 -2
-3 -3 -2 -2 -2 -2 -2 -2 -2 -2 -2 -2 -2 -2 -2 -2 -2 -2 -2 -2 -2 -2 -1 -1 -1 -1 -1 -1 -1 -1 -1 -1 -2 -2 -2 -2 -2 -2
-3 -3 -2 -2 -2 -2 -2 -2 -2 -2 -2 -2 -2 -2 -2 -2 -2 -2 -2 -2 -2 -2 -2 -1 -1 -1 -1 -1 -1 -1 -1 -2 -2 -2 -2 -2 -2 -2
-2 -2 -2 -2 -2 -2 -2 -2 -2 -2 -2 -2 -2 -2 -2 -2 -2 -2 -2 -2 -2 -2 -2 -2 -2 -2 -2 -2 -2 -1 -2 -2 -2 -2 -2 -2 -2 -2
-1 -1 -1 -1 -1 -1 -1 -1 -1 -1 -1 -1 -2 -2 -2 -2 -2 -2 -2 -2 -2 -2 -2 -2 -2 -2 -2 -2 -2 -2 -2 -2 -2 -2 -2 -2 -2 -2
1 1 1 1 1 1 1 1 1 1 0 -0 -1 -1 -1 -1 -1 -1 -1 -2 -2 -2 -2 -2 -2 -2 -2 -3 -2 -2 -2 -2 -2 -2 -2 -2 -2 -1
3 3 3 3 2 2 3 3 2 2 2 1 1 0 -0 -1 -1 -1 -1 -1 -1 -2 -2 -2 -2 -2 -2 -2 -2 -2 -2 -2 -1 -1 -2 -2 -2 -1
5 4 4 4 3 3 3 3 3 3 3 2 2 2 1 1 0 0 -0 -0 -1 -1 -1 -2 -2 -2 -2 -2 -2 -2 -1 -1 -1 -1 -1 -2 -2 -2
6 6 6 5 4 4 4 4 4 3 3 3 3 3 2 2 2 2 1 1 0 -0 -1 -1 -1 -1 -2 -2 -2 -2 -2 -2 -2 -2 -2 -2 -2 -2
7 7 7 6 6 5 5 5 5 4 4 4 3 3 3 3 3 3 2 1 1 0 -0 -1 -1 -1 -1 -1 -1 -2 -2 -2 -2 -2 -2 -2 -2 -2
8 8 7 7 7 6 6 6 5 5 5 4 4 4 4 3 3 3 2 1 1 0 -0 -0 -1 -1 -0 -0 -1 -1 -2 -2 -2 -2 -2 -2 -2 -2
8 8 8 7 7 7 7 6 6 5 5 5 5 4 4 3 3 2 2 1 1 0 0 -0 -0 -0 -0 0 0 0 -0 -1 -1 -2 -2 -1 -1 -1
8 8 8 8 7 7 7 6 6 6 6 5 5 5 4 3 3 3 2 2 2 1 1 0 0 0 1 1 1 1 1 -0 -1 -2 -2 -1 -1 -1
9 9 8 8 7 7 6 6 6 6 6 6 6 5 5 4 4 4 3 3 3 2 2 1 1 1 1 2 2 1 1 0 -1 -1 -2 -2 -1 -1
9 8 8 8 7 7 7 7 7 7 7 7 7 6 6 5 5 5 5 4 3 3 2 2 2 2 2 2 2 1 1 0 -0 -1 -2 -2 -2 -2
9 8 8 8 8 8 8 8 8 8 8 8 7 7 6 6 6 5 5 4 4 4 3 3 3 3 3 2 2 1 1 0 -0 -1 -1 -2 -2 -2
9 9 9 10 11 11 11 11 11 11 10 10 9 8 7 7 6 6 5 5 5 5 4 4 4 3 3 3 2 2 1 1 -0 -1 -1 -1 -1 -1
11 11 11 12 13 13 14 14 14 14 13 12 11 10 9 9 8 7 7 6 6 6 5 5 5 4 4 3 3 2 2 1 0 -0 -1 -1 -1 -1
12 12 12 13 13 13 13 14 14 15 15 14 13 12 12 11 11 10 9 8 8 7 6 6 6 6 5 4 4 3 2 1 1 0 -0 -1 -1 -1
12 12 12 12 12 12 12 12 13 14 14 14 14 13 13 13 12 12 11 10 10 9 8 8 7 7 6 5 5 4 3 2 1 1 0 -0 -1 -1
11 11 11 11 11 11 11 12 12 13 13 13 13 13 13 13 13 12 12 11 11 10 10 9 8 7 6 6 5 5 4 3 2 1 0 0 -0 -0